| time (UTC) | temp F | wind direction | speed MPH | gust MPH | rain 1hr in | rain 24hr in | rain mn in | humidity % | barometer mb |
| 20260510060008 | 72 | 140 | 4.0 | 9.0 | 0.00 | 0.00 | 0.00 | 87 | 1010.1 |
| 20260510054605 | 73 | 153 | 5.0 | 11.0 | 0.00 | 0.02 | 0.00 | 87 | 1009.9 |
| 20260510053056 | 73 | 142 | 5.0 | 12.0 | 0.00 | 0.02 | 0.00 | 87 | 1010.0 |
| 20260510051557 | 73 | 146 | 7.0 | 12.0 | 0.00 | 0.02 | 0.00 | 87 | 1009.9 |
| 20260510050051 | 74 | 167 | 5.0 | 15.0 | 0.00 | 0.02 | 0.00 | 87 | 1009.8 |
| 20260510044548 | 74 | 158 | 7.0 | 16.0 | 0.00 | 0.20 | 0.02 | 86 | 1009.7 |
| 20260510043047 | 74 | 149 | 8.0 | 19.0 | 0.00 | 0.20 | 0.02 | 86 | 1009.3 |
| 20260510041547 | 75 | 164 | 8.0 | 15.0 | 0.00 | 0.20 | 0.02 | 85 | 1009.2 |
| 20260510040048 | 75 | 151 | 7.0 | 15.0 | 0.00 | 0.20 | 0.02 | 84 | 1009.2 |
| 20260510034647 | 75 | 146 | 9.0 | 15.0 | 0.00 | 0.20 | 0.02 | 84 | 1009.4 |
| 20260510033051 | 76 | 149 | 8.0 | 14.0 | 0.00 | 0.20 | 0.02 | 83 | 1009.6 |
| 20260510031544 | 76 | 103 | 7.0 | 12.0 | 0.00 | 0.20 | 0.02 | 82 | 1009.5 |
| 20260510030143 | 76 | 123 | 5.0 | 10.0 | 0.00 | 0.20 | 0.02 | 80 | 1009.4 |
| 20260510024543 | 77 | 113 | 5.0 | 10.0 | 0.00 | 0.20 | 0.02 | 79 | 1009.2 |
| 20260510023042 | 77 | 128 | 4.0 | 10.0 | 0.00 | 0.20 | 0.02 | 78 | 1009.0 |
| 20260510021545 | 78 | 125 | 6.0 | 11.0 | 0.00 | 0.20 | 0.02 | 77 | 1008.8 |
| 20260510020041 | 78 | 133 | 6.0 | 11.0 | 0.00 | 0.20 | 0.02 | 77 | 1008.7 |
| 20260510014543 | 79 | 114 | 5.0 | 10.0 | 0.00 | 0.20 | 0.02 | 75 | 1008.5 |
| 20260510013039 | 79 | 113 | 6.0 | 8.0 | 0.00 | 0.20 | 0.02 | 74 | 1008.4 |
| 20260510011540 | 80 | 119 | 5.0 | 9.0 | 0.00 | 0.20 | 0.02 | 73 | 1008.3 |
| 20260510010044 | 81 | 119 | 5.0 | 11.0 | 0.00 | 0.20 | 0.02 | 72 | 1008.1 |
| 20260510004539 | 82 | 114 | 7.0 | 11.0 | 0.00 | 0.20 | 0.02 | 71 | 1007.9 |
| 20260510003041 | 83 | 109 | 6.0 | 11.0 | 0.00 | 0.20 | 0.02 | 69 | 1007.8 |
| 20260510001538 | 85 | 89 | 7.0 | 11.0 | 0.00 | 0.20 | 0.02 | 66 | 1007.6 |
| 20260510000036 | 86 | 104 | 6.0 | 12.0 | 0.00 | 0.20 | 0.02 | 65 | 1007.4 |
| 20260509234538 | 88 | 91 | 7.0 | 13.0 | 0.00 | 0.20 | 0.02 | 64 | 1007.3 |
| 20260509233035 | 88 | 92 | 6.0 | 8.0 | 0.00 | 0.20 | 0.02 | 61 | 1007.1 |
| 20260509231535 | 89 | 105 | 4.0 | 7.0 | 0.00 | 0.20 | 0.02 | 60 | 1007.1 |
| 20260509230033 | 90 | 100 | 4.0 | 8.0 | 0.00 | 0.20 | 0.02 | 61 | 1007.2 |
| 20260509224532 | 89 | 134 | 2.0 | 6.0 | 0.00 | 0.20 | 0.02 | 61 | 1007.1 |
| 20260509223030 | 89 | 79 | 2.0 | 8.0 | 0.00 | 0.20 | 0.02 | 62 | 1007.1 |
| 20260509221529 | 88 | 11 | 0.0 | 5.0 | 0.00 | 0.20 | 0.02 | 63 | 1007.1 |
| 20260509220038 | 88 | 224 | 0.0 | 5.0 | 0.00 | 0.20 | 0.02 | 64 | 1007.1 |
| 20260509214531 | 89 | 280 | 2.0 | 6.0 | 0.00 | 0.20 | 0.02 | 62 | 1007.2 |
| 20260509213023 | 89 | 52 | 2.0 | 4.0 | 0.00 | 0.20 | 0.02 | 65 | 1007.4 |
| 20260509211521 | 88 | 93 | 0.0 | 6.0 | 0.00 | 0.20 | 0.02 | 68 | 1007.5 |
| 20260509210015 | 87 | 113 | 2.0 | 6.0 | 0.00 | 0.20 | 0.02 | 70 | 1007.6 |
| 20260509204514 | 86 | 67 | 3.0 | 8.0 | 0.00 | 0.20 | 0.02 | 70 | 1007.8 |
| 20260509203023 | 86 | 115 | 1.0 | 3.0 | 0.00 | 0.20 | 0.02 | 70 | 1008.1 |
| 20260509201512 | 86 | 146 | 3.0 | 7.0 | 0.00 | 0.20 | 0.02 | 72 | 1008.2 |
| 20260509200008 | 85 | 41 | 0.0 | 5.0 | 0.00 | 0.20 | 0.02 | 71 | 1008.4 |
| 20260509194506 | 85 | 73 | 6.0 | 9.0 | 0.00 | 0.20 | 0.02 | 73 | 1008.5 |
| 20260509193004 | 84 | 77 | 5.0 | 8.0 | 0.00 | 0.20 | 0.02 | 74 | 1008.7 |
| 20260509191502 | 84 | 76 | 5.0 | 8.0 | 0.00 | 0.20 | 0.02 | 76 | 1008.8 |
| 20260509190059 | 83 | 128 | 1.0 | 6.0 | 0.00 | 0.20 | 0.02 | 76 | 1009.0 |
| 20260509184557 | 83 | 360 | 1.0 | 3.0 | 0.00 | 0.20 | 0.02 | 76 | 1009.0 |
| 20260509183105 | 83 | 100 | 1.0 | 4.0 | 0.00 | 0.20 | 0.02 | 77 | 1009.0 |
| 20260509181555 | 82 | 128 | 0.0 | 6.0 | 0.00 | 0.20 | 0.02 | 78 | 1009.2 |
| 20260509180052 | 82 | 340 | 3.0 | 7.0 | 0.00 | 0.20 | 0.02 | 78 | 1009.3 |
| 20260509174551 | 80 | 190 | 4.0 | 8.0 | 0.00 | 0.20 | 0.02 | 79 | 1009.3 |
| 20260509173046 | 79 | 313 | 1.0 | 6.0 | 0.00 | 0.20 | 0.02 | 82 | 1009.5 |
| 20260509171545 | 79 | 5 | 0.0 | 6.0 | 0.00 | 0.20 | 0.02 | 83 | 1009.6 |
| 20260509170040 | 78 | 285 | 0.0 | 3.0 | 0.00 | 0.20 | 0.02 | 83 | 1009.7 |
| 20260509164538 | 78 | 144 | 0.0 | 5.0 | 0.00 | 0.20 | 0.02 | 84 | 1009.8 |
| 20260509163044 | 77 | 173 | 1.0 | 4.0 | 0.00 | 0.20 | 0.02 | 86 | 1009.9 |
| 20260509161542 | 77 | 209 | 4.0 | 7.0 | 0.00 | 0.20 | 0.02 | 86 | 1009.9 |
| 20260509160034 | 76 | 235 | 2.0 | 8.0 | 0.00 | 0.20 | 0.02 | 88 | 1009.8 |
| 20260509154529 | 75 | 173 | 5.0 | 8.0 | 0.00 | 0.20 | 0.02 | 89 | 1009.8 |
| 20260509153042 | 75 | 219 | 4.0 | 7.0 | 0.00 | 0.20 | 0.02 | 91 | 1009.7 |
| 20260509151524 | 74 | 155 | 3.0 | 6.0 | 0.00 | 0.20 | 0.02 | 92 | 1009.6 |
| 20260509150028 | 73 | 132 | 0.0 | 5.0 | 0.00 | 0.20 | 0.02 | 93 | 1009.6 |
| 20260509144515 | 72 | 114 | 4.0 | 7.0 | 0.00 | 0.20 | 0.02 | 92 | 1009.6 |
| 20260509143013 | 72 | 132 | 3.0 | 7.0 | 0.00 | 0.20 | 0.02 | 92 | 1009.6 |
| 20260509141512 | 71 | 117 | 2.0 | 5.0 | 0.00 | 0.20 | 0.02 | 92 | 1009.7 |
| 20260509140006 | 70 | 126 | 2.0 | 4.0 | 0.00 | 0.20 | 0.02 | 92 | 1009.9 |
| 20260509134503 | 69 | 125 | 2.0 | 4.0 | 0.00 | 0.20 | 0.02 | 91 | 1010.1 |
| 20260509133005 | 68 | 126 | 2.0 | 4.0 | 0.00 | 0.20 | 0.02 | 91 | 1010.2 |
| 20260509131502 | 68 | 122 | 3.0 | 7.0 | 0.00 | 0.20 | 0.02 | 91 | 1010.2 |
| 20260509130101 | 67 | 97 | 3.0 | 6.0 | 0.00 | 0.20 | 0.02 | 91 | 1010.5 |
| 20260509124600 | 67 | 77 | 3.0 | 5.0 | 0.00 | 0.20 | 0.02 | 91 | 1010.4 |
| 20260509123129 | 67 | 79 | 2.0 | 4.0 | 0.00 | 0.20 | 0.02 | 90 | 1010.3 |
| 20260509121601 | 67 | 82 | 2.0 | 6.0 | 0.00 | 0.20 | 0.02 | 90 | 1010.2 |
| 20260509120059 | 67 | 121 | 0.0 | 0.0 | 0.00 | 0.20 | 0.02 | 90 | 1010.0 |
| 20260509114558 | 67 | 121 | 0.0 | 0.0 | 0.00 | 0.20 | 0.02 | 91 | 1009.8 |
| 20260509113105 | 67 | 121 | 0.0 | 3.0 | 0.00 | 0.20 | 0.02 | 91 | 1009.6 |
| 20260509111557 | 66 | 125 | 0.0 | 4.0 | 0.00 | 0.20 | 0.02 | 90 | 1008.7 |
| 20260509110057 | 66 | 107 | 3.0 | 9.0 | 0.00 | 0.20 | 0.02 | 91 | 1008.0 |
| 20260509104556 | 66 | 148 | 4.0 | 10.0 | 0.00 | 0.20 | 0.02 | 91 | 1008.0 |
| 20260509103102 | 65 | 113 | 4.0 | 10.0 | 0.00 | 0.20 | 0.02 | 90 | 1007.8 |
| 20260509101557 | 65 | 146 | 3.0 | 10.0 | 0.00 | 0.20 | 0.02 | 90 | 1008.1 |
| 20260509100058 | 65 | 159 | 5.0 | 8.0 | 0.00 | 0.20 | 0.02 | 90 | 1008.2 |
| 20260509094550 | 64 | 157 | 4.0 | 7.0 | 0.00 | 0.20 | 0.02 | 90 | 1008.4 |
| 20260509093050 | 64 | 165 | 4.0 | 5.0 | 0.00 | 0.20 | 0.02 | 89 | 1008.5 |
| 20260509091550 | 64 | 182 | 1.0 | 4.0 | 0.00 | 0.20 | 0.02 | 89 | 1008.5 |
| 20260509090054 | 64 | 184 | 0.0 | 5.0 | 0.00 | 0.20 | 0.02 | 89 | 1008.5 |
| 20260509084548 | 64 | 183 | 2.0 | 3.0 | 0.00 | 0.20 | 0.02 | 88 | 1008.8 |
| 20260509083048 | 64 | 183 | 3.0 | 6.0 | 0.00 | 0.20 | 0.02 | 89 | 1009.2 |
| 20260509081542 | 65 | 121 | 0.0 | 0.0 | 0.00 | 0.20 | 0.02 | 88 | 1009.6 |
| 20260509080042 | 65 | 109 | 1.0 | 2.0 | 0.00 | 0.20 | 0.02 | 87 | 1009.7 |
| 20260509074545 | 65 | 108 | 2.0 | 4.0 | 0.00 | 0.20 | 0.02 | 86 | 1009.5 |
| 20260509073038 | 65 | 108 | 4.0 | 7.0 | 0.00 | 0.20 | 0.02 | 86 | 1009.7 |
| 20260509071536 | 65 | 155 | 0.0 | 0.0 | 0.00 | 0.20 | 0.02 | 86 | 1010.0 |
| 20260509070040 | 65 | 155 | 2.0 | 10.0 | 0.00 | 0.20 | 0.02 | 87 | 1009.7 |
| 20260509064538 | 65 | 125 | 2.0 | 6.0 | 0.00 | 0.20 | 0.02 | 86 | 1010.2 |
| 20260509063033 | 65 | 87 | 2.0 | 6.0 | 0.00 | 0.20 | 0.02 | 85 | 1010.5 |
| 20260509061534 | 66 | 97 | 3.0 | 6.0 | 0.00 | 0.20 | 0.02 | 86 | 1010.6 |